GW1660 Weather Reports


Display with metric or nautical units.
time (UTC)temp
F
wind
direction
speed
MPH
gust
MPH
rain 1hr
in
rain 24hr
in
rain mn
in
humidity
%
barometer
mb
20260504070154 40 293 0.0 0.0 0.00 0.00 0.00 81 1014.4
20260504060114 42 293 0.0 0.0 0.00 0.00 0.00 77 1014.5
20260504050542 43 293 0.0 0.0 0.00 0.00 0.00 75 1014.6
20260504045536 43 293 0.0 0.0 0.00 0.00 0.00 76 1014.7
20260504045031 43 293 0.0 0.0 0.00 0.00 0.00 75 1014.7
20260504044529 43 293 0.0 0.0 0.00 0.00 0.00 76 1014.6
20260504044026 43 293 0.0 0.0 0.00 0.00 0.00 75 1014.7
20260504043523 43 293 0.0 0.0 0.00 0.00 0.00 73 1014.5
20260504043021 44 293 0.0 0.0 0.00 0.00 0.00 73 1014.5
20260504042517 44 293 0.0 0.0 0.00 0.00 0.00 71 1014.6
20260504042014 44 293 0.0 0.0 0.00 0.00 0.00 70 1014.5
20260504041510 45 293 0.0 0.0 0.00 0.00 0.00 69 1014.6
20260504041006 45 293 0.0 0.0 0.00 0.00 0.00 71 1014.5
20260504040504 45 293 1.0 1.0 0.00 0.00 0.00 73 1014.4
20260504035959 45 293 1.0 1.0 0.00 0.00 0.00 71 1014.3
20260504035457 45 293 0.0 0.0 0.00 0.00 0.00 70 1014.4
20260504034953 46 293 1.0 1.0 0.00 0.00 0.00 70 1014.2
20260504034451 46 294 0.0 0.0 0.00 0.00 0.00 66 1014.3
20260504033948 46 294 0.0 0.0 0.00 0.00 0.00 66 1014.5
20260504033446 46 294 0.0 0.0 0.00 0.00 0.00 68 1014.4
20260504032943 46 294 0.0 0.0 0.00 0.00 0.00 66 1014.3
20260504032440 46 294 0.0 0.0 0.00 0.00 0.00 67 1014.1
20260504031936 46 294 0.0 0.0 0.00 0.00 0.00 65 1014.2
20260504031433 46 294 0.0 0.0 0.00 0.00 0.00 68 1014.0
20260504030930 46 294 0.0 0.0 0.00 0.00 0.00 63 1014.2
20260504030427 46 294 0.0 0.0 0.00 0.00 0.00 66 1014.1
20260504025923 46 294 0.0 0.0 0.00 0.00 0.00 66 1014.1
20260504025420 47 294 0.0 0.0 0.00 0.00 0.00 60 1014.2
20260504024917 47 294 0.0 0.0 0.00 0.00 0.00 60 1014.1
20260504024414 48 294 0.0 0.0 0.00 0.00 0.00 60 1014.0
20260504023911 48 294 0.0 0.0 0.00 0.00 0.00 59 1013.9
20260504023407 48 294 0.0 0.0 0.00 0.00 0.00 58 1014.1
20260504022903 49 294 0.0 0.0 0.00 0.00 0.00 55 1014.1
20260504022400 49 294 0.0 0.0 0.00 0.00 0.00 54 1014.1
20260504021856 50 294 0.0 0.0 0.00 0.00 0.00 53 1014.2
20260504021354 50 294 0.0 0.0 0.00 0.00 0.00 54 1014.0
20260504020851 51 294 0.0 0.0 0.00 0.00 0.00 51 1014.0
20260504020347 52 294 0.0 0.0 0.00 0.00 0.00 47 1014.1
20260504015843 52 294 0.0 0.0 0.00 0.00 0.00 44 1014.1
20260504015340 52 294 0.0 0.0 0.00 0.00 0.00 43 1014.0
20260504014836 52 294 0.0 0.0 0.00 0.00 0.00 45 1013.9
20260504014332 53 294 0.0 0.0 0.00 0.00 0.00 45 1014.1
20260504013830 53 294 0.0 1.0 0.00 0.00 0.00 42 1014.1
20260504013328 53 294 0.0 1.0 0.00 0.00 0.00 41 1013.9
20260504012824 53 294 0.0 1.0 0.00 0.00 0.00 41 1014.0
20260504012322 54 294 0.0 0.0 0.00 0.00 0.00 41 1014.0
20260504011819 54 294 0.0 1.0 0.00 0.00 0.00 40 1013.8
20260504011316 54 294 0.0 0.0 0.00 0.00 0.00 40 1013.6
20260504010811 54 294 0.0 1.0 0.00 0.00 0.00 40 1013.8
20260504010307 54 294 0.0 0.0 0.00 0.00 0.00 40 1013.8
20260504005804 55 294 1.0 1.0 0.00 0.00 0.00 39 1013.7
20260504005301 55 294 0.0 1.0 0.00 0.00 0.00 39 1013.6
20260504004759 55 294 0.0 1.0 0.00 0.00 0.00 37 1013.6
20260504004256 56 294 0.0 1.0 0.00 0.00 0.00 37 1013.8
20260504003752 56 294 1.0 1.0 0.00 0.00 0.00 37 1013.6
20260504003249 56 294 1.0 1.0 0.00 0.00 0.00 36 1013.5
20260504002745 57 292 2.0 3.0 0.00 0.00 0.00 36 1013.4
20260504002242 57 296 2.0 2.0 0.00 0.00 0.00 35 1013.4
20260504001740 57 294 2.0 2.0 0.00 0.00 0.00 35 1013.3
20260504001237 57 287 2.0 2.0 0.00 0.00 0.00 34 1013.6
20260504000734 58 288 2.0 3.0 0.00 0.00 0.00 33 1013.2
20260504000231 58 289 2.0 3.0 0.00 0.00 0.00 33 1013.2
20260503235729 59 302 2.0 6.0 0.00 0.00 0.00 32 1012.9
20260503235226 59 291 2.0 7.0 0.00 0.00 0.00 32 1012.9
20260503234724 59 284 4.0 4.0 0.00 0.00 0.00 32 1012.9
20260503234222 59 259 4.0 7.0 0.00 0.00 0.00 31 1013.0
20260503233718 60 261 3.0 6.0 0.00 0.00 0.00 31 1012.8
20260503233214 60 280 4.0 6.0 0.00 0.00 0.00 31 1013.0
20260503232711 60 277 2.0 7.0 0.00 0.00 0.00 30 1012.9
20260503232208 60 278 2.0 4.0 0.00 0.00 0.00 30 1013.0
20260503231707 61 283 4.0 9.0 0.00 0.00 0.00 29 1013.0
20260503231203 61 262 6.0 8.0 0.00 0.00 0.00 29 1013.0
20260503230659 61 268 6.0 7.0 0.00 0.00 0.00 29 1012.9
20260503230156 61 282 5.0 9.0 0.00 0.00 0.00 28 1012.9
20260503225653 62 292 2.0 9.0 0.00 0.00 0.00 29 1012.8
20260503225153 62 292 8.0 11.0 0.00 0.00 0.00 28 1012.6
20260503224651 62 280 6.0 8.0 0.00 0.00 0.00 28 1012.8
20260503224149 61 289 4.0 7.0 0.00 0.00 0.00 29 1012.8
20260503223647 61 277 6.0 9.0 0.00 0.00 0.00 28 1012.8
20260503223143 61 280 4.0 10.0 0.00 0.00 0.00 29 1013.0
20260503222640 61 274 7.0 13.0 0.00 0.00 0.00 28 1012.9
20260503222138 62 304 6.0 7.0 0.00 0.00 0.00 28 1012.8
20260503221636 62 281 9.0 10.0 0.00 0.00 0.00 27 1012.7
20260503221133 62 225 3.0 6.0 0.00 0.00 0.00 28 1012.7
20260503220630 62 304 5.0 6.0 0.00 0.00 0.00 29 1012.8
20260503220126 61 297 8.0 11.0 0.00 0.00 0.00 28 1012.9
20260503215624 61 280 10.0 13.0 0.00 0.00 0.00 28 1012.7
20260503215120 61 277 8.0 14.0 0.00 0.00 0.00 29 1012.9
20260503214619 61 275 13.0 15.0 0.00 0.00 0.00 28 1012.9
20260503214114 61 324 10.0 11.0 0.00 0.00 0.00 28 1012.9
20260503213614 61 303 9.0 10.0 0.00 0.00 0.00 28 1012.7
20260503213110 62 290 8.0 13.0 0.00 0.00 0.00 27 1012.8
20260503212608 62 267 9.0 11.0 0.00 0.00 0.00 28 1012.8
20260503212105 61 269 4.0 11.0 0.00 0.00 0.00 29 1012.5
20260503211602 61 260 7.0 11.0 0.00 0.00 0.00 28 1012.7
20260503211057 62 281 9.0 14.0 0.00 0.00 0.00 27 1013.0
20260503210554 61 303 9.0 13.0 0.00 0.00 0.00 28 1012.9
20260503210050 61 283 2.0 10.0 0.00 0.00 0.00 29 1012.7
20260503205547 62 286 7.0 9.0 0.00 0.00 0.00 28 1012.8
20260503205043 62 271 6.0 11.0 0.00 0.00 0.00 28 1012.7
20260503204540 62 294 10.0 15.0 0.00 0.00 0.00 27 1012.8
20260503204037 61 277 6.0 7.0 0.00 0.00 0.00 29 1012.6
20260503203534 61 288 5.0 10.0 0.00 0.00 0.00 29 1012.8
20260503203031 61 276 9.0 13.0 0.00 0.00 0.00 27 1012.7
20260503202529 62 286 11.0 15.0 0.00 0.00 0.00 29 1012.6
20260503202027 61 289 7.0 14.0 0.00 0.00 0.00 29 1012.7
20260503201525 61 288 6.0 10.0 0.00 0.00 0.00 28 1013.0
20260503201022 61 283 10.0 13.0 0.00 0.00 0.00 28 1012.9
20260503200518 62 258 2.0 11.0 0.00 0.00 0.00 28 1013.2
20260503200015 62 299 6.0 11.0 0.00 0.00 0.00 28 1013.1
20260503195512 62 294 4.0 9.0 0.00 0.00 0.00 28 1013.0
20260503195009 61 285 4.0 7.0 0.00 0.00 0.00 29 1013.1
20260503194506 60 280 7.0 13.0 0.00 0.00 0.00 30 1013.4
20260503194000 62 336 4.0 14.0 0.00 0.00 0.00 31 1013.4
20260503193457 60 288 7.0 14.0 0.00 0.00 0.00 29 1013.3
20260503192952 59 283 5.0 16.0 0.00 0.00 0.00 28 1013.3
20260503192449 60 315 5.0 8.0 0.00 0.00 0.00 30 1013.5
20260503191944 60 290 6.0 13.0 0.00 0.00 0.00 29 1013.7
20260503191442 59 310 2.0 15.0 0.00 0.00 0.00 30 1013.6
20260503190938 60 297 7.0 13.0 0.00 0.00 0.00 29 1013.7
20260503190436 59 291 10.0 11.0 0.00 0.00 0.00 30 1013.9
20260503185933 60 293 6.0 11.0 0.00 0.00 0.00 28 1013.9
20260503185429 60 273 6.0 9.0 0.00 0.00 0.00 30 1013.8
20260503184928 58 296 8.0 17.0 0.00 0.00 0.00 30 1013.9
20260503184425 60 287 4.0 11.0 0.00 0.00 0.00 31 1014.0
20260503183922 59 258 4.0 15.0 0.00 0.00 0.00 30 1013.9
20260503183418 59 287 7.0 9.0 0.00 0.00 0.00 29 1014.0
20260503182915 59 289 11.0 15.0 0.00 0.00 0.00 30 1014.2
20260503182414 59 258 4.0 13.0 0.00 0.00 0.00 32 1014.1
20260503181911 57 287 5.0 13.0 0.00 0.00 0.00 32 1014.2
20260503181408 59 285 3.0 18.0 0.00 0.00 0.00 33 1014.4
20260503180904 57 303 4.0 8.0 0.00 0.00 0.00 35 1014.4
20260503180403 57 287 5.0 16.0 0.00 0.00 0.00 33 1014.6
20260503175858 56 296 3.0 8.0 0.00 0.00 0.00 32 1014.4
20260503175357 56 235 2.0 8.0 0.00 0.00 0.00 33 1014.3
20260503174857 55 287 4.0 8.0 0.00 0.00 0.00 34 1014.5
20260503174356 55 298 6.0 10.0 0.00 0.00 0.00 34 1014.4
20260503173856 56 238 5.0 10.0 0.00 0.00 0.00 33 1014.5
20260503173353 57 269 5.0 7.0 0.00 0.00 0.00 35 1014.5
20260503172850 56 286 3.0 8.0 0.00 0.00 0.00 36 1014.4
20260503172348 56 248 6.0 9.0 0.00 0.00 0.00 34 1014.7
20260503171843 55 44 3.0 6.0 0.00 0.00 0.00 36 1014.7
20260503171341 55 15 7.0 13.0 0.00 0.00 0.00 34 1014.8
20260503170838 55 275 10.0 14.0 0.00 0.00 0.00 33 1014.6
20260503170334 55 283 6.0 11.0 0.00 0.00 0.00 33 1014.8
20260503150727 51 246 8.0 13.0 0.00 0.00 0.00 33 1015.5
20260503150223 51 272 6.0 11.0 0.00 0.00 0.00 35 1015.6
20260503140147 49 294 6.0 13.0 0.00 0.00 0.00 42 1015.8
20260503131117 48 293 5.0 13.0 0.00 0.00 0.00 49 1015.8
20260503130614 47 284 4.0 8.0 0.00 0.00 0.00 49 1015.8
20260503130112 47 261 2.0 7.0 0.00 0.00 0.00 50 1015.9
20260503110504 42 283 2.0 7.0 0.00 0.00 0.00 58 1015.1
20260503090356 44 285 2.0 6.0 0.00 0.00 0.00 56 1013.3
20260503081323 44 278 1.0 2.0 0.00 0.00 0.00 65 1013.2
20260503080819 44 278 2.0 2.0 0.00 0.00 0.00 65 1012.9
20260503080317 44 252 1.0 1.0 0.00 0.00 0.00 65 1012.8